Location: Byszew
(52.1813°N, 19.2693°E)
Time: 21:35:05
(UTC+00:00)

SeaSat 1 - Pass Details

Date: 03 March 2021
Orbit: 744 x 747 km, 108.0° (Epoch: 15 April)

Event Time Altitude Azimuth Distance (km) Brightness Sun altitude
Rises 19:31:09 0° 27° (NNE) 3,203 5.7 -28.3°
Reaches altitude 10° 19:33:37 10° 18° (NNE) 2,276 5.0 -28.6°
Maximum altitude 19:37:57 32° 317° (NW) 1,276 4.1 -29.2°
Drops below altitude 10° 19:42:17 10° 255° (WSW) 2,267 5.4 -29.7°
Sets 19:44:44 0° 246° (WSW) 3,189 6.1 -30.1°
